Simultaneous Nadir Overpasses (SNOs) Predictions

Prediction of SNOs over PacNW region [( 10.00, 139.50) to ( 22.70, 165.60)] between AQUA and NPP Satellites:

Table of predicted SNOs over PacNW region for the next 30.0 days since TLE Epoch: 9/3/2022
Index Date (AQUA) Time (AQUA) AQUA Lat,Lon Date (NPP) Time (NPP) NPP Lat,Lon Distance(km) Time Diff (sec)
1 09/08/2022 03:34:47 12.15, 149.61 09/08/2022 03:37:41 11.17, 145.22 489.81 174
2 09/10/2022 15:36:21 13.20, 152.95 09/10/2022 15:33:44 13.76, 150.08 315.59 157
3 09/16/2022 02:42:43 10.06, 162.98 09/16/2022 02:46:12 8.36, 158.54 522.67 209
4 09/18/2022 16:21:06 22.61, 143.30 09/18/2022 16:21:47 23.42, 139.73 377.06 41
5 09/26/2022 15:29:34 22.59, 156.23 09/26/2022 15:31:04 23.47, 152.42 401.68 90
6 09/29/2022 03:50:42 22.65, 144.06 09/29/2022 03:47:13 22.04, 141.03 319.30 209
